AFR98EZ LFKB-LFPO

Flight info

Callsign AFR98EZ
Flight time N/A
Altitude 19000
Route MOULE L146 ELB/N0427F340 DCT BAKRO DCT EVROG DCT KONER DCT AOSTA DCT ORSUD DCT MOLUS DCT UNKIR DCT DJL
Aircraft A320/M-SDE2E3FGIJ1RWY/HB1

Departure

Time 2026-04-25 05:00
Airport Bastia-Poretta International airport (LFKB)

Arrival

Time N/A
Airport Paris-Orly Airport (LFPO)
Time Latitude Longitude Altitude Speed Heading
2026-04-25 04:37 42.54831 9.48167 36 ft 0 kts 252°
2026-04-25 04:51 42.54835 9.48184 33 ft 4 kts 253°
2026-04-25 04:52 42.54842 9.48219 34 ft 4 kts 262°
2026-04-25 04:52 42.54842 9.48254 34 ft 4 kts 290°
2026-04-25 04:52 42.54829 9.48279 34 ft 2 kts 341°
2026-04-25 04:52 42.54823 9.48282 35 ft 0 kts 343°
2026-04-25 04:54 42.54844 9.48273 35 ft 9 kts 342°
2026-04-25 04:55 42.54926 9.48239 33 ft 13 kts 347°
2026-04-25 04:55 42.55008 9.48228 35 ft 11 kts 346°
2026-04-25 04:55 42.55081 9.48197 35 ft 13 kts 342°
2026-04-25 04:55 42.55196 9.48149 35 ft 19 kts 342°
2026-04-25 04:56 42.55327 9.48092 35 ft 20 kts 342°
2026-04-25 04:56 42.55467 9.48033 35 ft 22 kts 343°
2026-04-25 04:56 42.55625 9.47967 31 ft 26 kts 342°
2026-04-25 04:56 42.55762 9.47909 28 ft 17 kts 343°
2026-04-25 04:57 42.55857 9.47869 28 ft 10 kts 342°
2026-04-25 04:57 42.55921 9.47874 27 ft 10 kts 30°
2026-04-25 04:57 42.55949 9.47947 26 ft 9 kts 75°
2026-04-25 04:57 42.55967 9.48020 26 ft 8 kts 66°
2026-04-25 04:58 42.56010 9.48059 26 ft 8 kts
2026-04-25 04:58 42.56061 9.48041 24 ft 7 kts 342°
2026-04-25 04:58 42.56121 9.48015 24 ft 13 kts 343°
2026-04-25 04:58 42.56205 9.47980 25 ft 13 kts 341°
2026-04-25 04:59 42.56265 9.47913 22 ft 9 kts 313°
2026-04-25 04:59 42.56298 9.47888 22 ft 4 kts
2026-04-25 04:59 42.56316 9.47916 23 ft 4 kts 79°
2026-04-25 04:59 42.56301 9.47939 22 ft 4 kts 156°
2026-04-25 05:00 42.56182 9.47989 24 ft 50 kts 163°
2026-04-25 05:00 42.55612 9.48228 31 ft 118 kts 162°
2026-04-25 05:00 42.54681 9.48616 240 ft 149 kts 164°
2026-04-25 05:00 42.53727 9.49091 958 ft 147 kts 146°
2026-04-25 05:01 42.53211 9.50245 1577 ft 149 kts 96°
2026-04-25 05:01 42.53383 9.51613 2166 ft 150 kts 62°
2026-04-25 05:01 42.53874 9.52851 2740 ft 152 kts 62°
2026-04-25 05:01 42.54363 9.54125 3291 ft 155 kts 63°
2026-04-25 05:02 42.54888 9.55513 3597 ft 177 kts 63°
2026-04-25 05:02 42.55485 9.57097 3912 ft 200 kts 63°
2026-04-25 05:02 42.56157 9.58883 4235 ft 225 kts 63°
2026-04-25 05:02 42.56905 9.60877 4668 ft 249 kts 63°
2026-04-25 05:03 42.57721 9.63066 5239 ft 268 kts 63°
2026-04-25 05:03 42.58569 9.65350 6116 ft 274 kts 63°
2026-04-25 05:03 42.59416 9.67642 7027 ft 277 kts 63°
2026-04-25 05:03 42.60287 9.69992 7935 ft 280 kts 63°
2026-04-25 05:04 42.61171 9.72371 8822 ft 284 kts 62°
2026-04-25 05:04 42.62035 9.74815 9689 ft 290 kts 68°
2026-04-25 05:04 42.62581 9.77480 10440 ft 300 kts 76°
2026-04-25 05:04 42.63069 9.80347 10746 ft 323 kts 76°
2026-04-25 05:05 42.63583 9.83370 11338 ft 333 kts 76°
2026-04-25 05:05 42.64107 9.86453 12136 ft 337 kts 77°
2026-04-25 05:05 42.64638 9.89568 12953 ft 340 kts 77°
2026-04-25 05:05 42.65168 9.92667 13747 ft 343 kts 77°
2026-04-25 05:06 42.65709 9.95837 14472 ft 346 kts 77°
2026-04-25 05:06 42.66256 9.99042 15168 ft 350 kts 77°
2026-04-25 05:06 42.66807 10.02273 15866 ft 353 kts 77°
2026-04-25 05:06 42.67362 10.05536 16560 ft 356 kts 77°
2026-04-25 05:07 42.67918 10.08828 17243 ft 359 kts 77°
2026-04-25 05:07 42.68476 10.12152 17918 ft 363 kts 77°
2026-04-25 05:07 42.69041 10.15508 18568 ft 366 kts 77°
2026-04-25 05:07 42.69613 10.18894 19147 ft 369 kts 77°
2026-04-25 05:08 42.70271 10.22281 19708 ft 373 kts 69°
2026-04-25 05:08 42.71509 10.25338 20271 ft 378 kts 53°
2026-04-25 05:08 42.73400 10.27834 20833 ft 383 kts 36°
2026-04-25 05:08 42.75790 10.29476 21401 ft 389 kts 18°
2026-04-25 05:09 42.78473 10.30081 21956 ft 395 kts
2026-04-25 05:09 42.81198 10.29535 22504 ft 400 kts 342°
2026-04-25 05:09 42.83696 10.27851 23053 ft 404 kts 324°
2026-04-25 05:09 42.85917 10.25469 23602 ft 408 kts 321°
2026-04-25 05:10 42.88127 10.23018 24073 ft 411 kts 321°
2026-04-25 05:10 42.90345 10.20534 24537 ft 414 kts 321°
2026-04-25 05:10 42.92544 10.18068 24968 ft 417 kts 321°
2026-04-25 05:10 42.94793 10.15554 25399 ft 419 kts 321°
2026-04-25 05:11 42.97062 10.13029 25835 ft 422 kts 321°
2026-04-25 05:11 42.99343 10.10493 26270 ft 424 kts 321°
2026-04-25 05:11 43.01634 10.07948 26716 ft 425 kts 321°
2026-04-25 05:12 43.06243 10.02819 27550 ft 429 kts 321°
2026-04-25 05:12 43.08532 10.00266 27946 ft 432 kts 321°
2026-04-25 05:12 43.10863 9.97660 28347 ft 434 kts 321°
2026-04-25 05:12 43.13204 9.95039 28733 ft 436 kts 321°
2026-04-25 05:13 43.15554 9.92399 29111 ft 438 kts 321°
2026-04-25 05:13 43.17916 9.89747 29481 ft 440 kts 322°
2026-04-25 05:13 43.20292 9.87082 29843 ft 442 kts 322°
2026-04-25 05:13 43.22678 9.84407 30197 ft 444 kts 322°
2026-04-25 05:14 43.25073 9.81724 30498 ft 446 kts 322°
2026-04-25 05:14 43.27447 9.79067 30780 ft 447 kts 322°
2026-04-25 05:14 43.29862 9.76358 31056 ft 449 kts 322°
2026-04-25 05:15 43.34704 9.70885 31577 ft 453 kts 321°
2026-04-25 05:15 43.37135 9.68128 31871 ft 453 kts 321°
2026-04-25 05:15 43.39563 9.65375 32242 ft 452 kts 321°
2026-04-25 05:15 43.41987 9.62630 32596 ft 451 kts 321°
2026-04-25 05:16 43.44407 9.59892 32961 ft 450 kts 321°
2026-04-25 05:16 43.46821 9.57153 33326 ft 449 kts 321°
2026-04-25 05:16 43.49197 9.54452 33671 ft 449 kts 321°
2026-04-25 05:16 43.51690 9.51882 34009 ft 448 kts 327°
2026-04-25 05:17 43.54284 9.49523 34107 ft 443 kts 327°
2026-04-25 05:17 43.59349 9.44922 34121 ft 431 kts 327°
2026-04-25 05:18 43.64336 9.40379 34126 ft 429 kts 327°
2026-04-25 05:18 43.69305 9.35838 34119 ft 428 kts 327°
2026-04-25 05:19 43.74231 9.31323 34120 ft 428 kts 327°
2026-04-25 05:19 43.79185 9.26768 34117 ft 427 kts 327°
2026-04-25 05:20 43.84139 9.22221 34109 ft 427 kts 327°
2026-04-25 05:20 43.89087 9.17659 34110 ft 427 kts 326°
2026-04-25 05:21 43.93993 9.13124 34106 ft 427 kts 326°
2026-04-25 05:21 43.98926 9.08549 34101 ft 426 kts 326°
2026-04-25 05:22 44.03863 9.03972 34095 ft 426 kts 326°
2026-04-25 05:22 44.08795 8.99393 34099 ft 426 kts 326°
2026-04-25 05:23 44.13685 8.94841 34100 ft 425 kts 325°
2026-04-25 05:23 44.18603 8.90255 34098 ft 425 kts 326°
2026-04-25 05:24 44.23513 8.85660 34098 ft 425 kts 326°
2026-04-25 05:24 44.28422 8.81069 34096 ft 425 kts 325°
2026-04-25 05:25 44.33323 8.76476 34101 ft 424 kts 325°
2026-04-25 05:25 44.38184 8.71898 34099 ft 424 kts 325°
2026-04-25 05:26 44.43071 8.67286 34103 ft 423 kts 324°
2026-04-25 05:26 44.47943 8.62679 34102 ft 422 kts 324°
2026-04-25 05:27 44.52813 8.58077 34092 ft 422 kts 325°
2026-04-25 05:27 44.57641 8.53500 34090 ft 422 kts 324°
2026-04-25 05:28 44.62499 8.48881 34077 ft 421 kts 324°
2026-04-25 05:28 44.67351 8.44262 34070 ft 421 kts 324°
2026-04-25 05:29 44.72201 8.39631 34068 ft 421 kts 324°
2026-04-25 05:29 44.77049 8.34995 34061 ft 422 kts 324°
2026-04-25 05:30 44.81865 8.30381 34055 ft 421 kts 324°
2026-04-25 05:30 44.86713 8.25735 34057 ft 421 kts 324°
2026-04-25 05:31 44.91551 8.21074 34064 ft 421 kts 324°
2026-04-25 05:31 44.96386 8.16404 34060 ft 421 kts 324°
2026-04-25 05:32 45.01182 8.11775 34049 ft 420 kts 324°
2026-04-25 05:32 45.06009 8.07108 34048 ft 420 kts 324°
2026-04-25 05:33 45.10831 8.02436 34065 ft 420 kts 324°
2026-04-25 05:33 45.15640 7.97752 34062 ft 419 kts 324°
2026-04-25 05:34 45.20412 7.93099 34064 ft 419 kts 324°
2026-04-25 05:34 45.25214 7.88414 34063 ft 419 kts 324°
2026-04-25 05:35 45.30007 7.83720 34063 ft 418 kts 324°
2026-04-25 05:35 45.34801 7.79019 34067 ft 418 kts 323°
2026-04-25 05:36 45.39585 7.74319 34065 ft 418 kts 323°
2026-04-25 05:36 45.44332 7.69643 34061 ft 418 kts 323°
2026-04-25 05:37 45.49110 7.64938 34054 ft 417 kts 324°
2026-04-25 05:37 45.53885 7.60234 34063 ft 417 kts 323°
2026-04-25 05:38 45.58626 7.55549 34063 ft 417 kts 323°
2026-04-25 05:38 45.63382 7.50823 34068 ft 417 kts 323°
2026-04-25 05:39 45.68137 7.46081 34067 ft 417 kts 323°
2026-04-25 05:39 45.72888 7.41338 34124 ft 416 kts 323°
2026-04-25 05:40 45.77638 7.36596 34136 ft 416 kts 322°
2026-04-25 05:40 45.82344 7.31874 34133 ft 416 kts 322°
2026-04-25 05:41 45.87057 7.27081 34125 ft 415 kts 322°
2026-04-25 05:41 45.91765 7.22274 34118 ft 415 kts 322°
2026-04-25 05:42 45.96471 7.17463 34118 ft 415 kts 322°
2026-04-25 05:42 46.01140 7.12682 34145 ft 415 kts 321°
2026-04-25 05:43 46.05843 7.07863 34152 ft 414 kts 321°
2026-04-25 05:43 46.10533 7.03040 34151 ft 414 kts 321°
2026-04-25 05:44 46.15218 6.98219 34149 ft 413 kts 321°
2026-04-25 05:44 46.19864 6.93426 34146 ft 413 kts 321°
2026-04-25 05:45 46.24542 6.88591 34132 ft 414 kts 321°
2026-04-25 05:45 46.29221 6.83749 34118 ft 414 kts 321°
2026-04-25 05:46 46.33894 6.78889 34118 ft 413 kts 321°
2026-04-25 05:46 46.38559 6.74032 34139 ft 413 kts 320°
2026-04-25 05:47 46.43092 6.69053 34134 ft 409 kts 312°
2026-04-25 05:47 46.46510 6.62613 34129 ft 401 kts 296°
2026-04-25 05:48 46.49285 6.55583 34126 ft 402 kts 297°
2026-04-25 05:48 46.51595 6.49735 34123 ft 402 kts 297°
2026-04-25 05:49 46.54370 6.42694 34129 ft 401 kts 297°
2026-04-25 05:49 46.57580 6.34530 34138 ft 400 kts 297°
2026-04-25 05:50 46.59865 6.28701 34131 ft 399 kts 297°
2026-04-25 05:50 46.62607 6.21689 34129 ft 398 kts 297°
2026-04-25 05:51 46.65345 6.14685 34128 ft 398 kts 297°
2026-04-25 05:51 46.68511 6.06540 34124 ft 397 kts 297°
2026-04-25 05:52 46.70784 6.00677 34135 ft 396 kts 297°
2026-04-25 05:52 46.73465 5.93729 34134 ft 396 kts 297°
2026-04-25 05:53 46.76153 5.86738 34131 ft 395 kts 297°
2026-04-25 05:53 46.78834 5.79754 34130 ft 394 kts 297°
2026-04-25 05:54 46.81670 5.72904 34115 ft 396 kts 306°
2026-04-25 05:54 46.87569 5.64458 34144 ft 398 kts 315°
2026-04-25 05:55 46.91604 5.58945 34150 ft 396 kts 315°
2026-04-25 05:55 46.95620 5.53426 34145 ft 396 kts 314°
2026-04-25 05:56 46.99625 5.47903 34130 ft 395 kts 314°
2026-04-25 05:56 47.03597 5.42418 34130 ft 395 kts 314°
2026-04-25 05:57 47.07595 5.36892 34148 ft 395 kts 315°
2026-04-25 05:57 47.11593 5.31343 34112 ft 396 kts 316°
2026-04-25 05:58 47.15588 5.25779 34116 ft 396 kts 316°
2026-04-25 05:58 47.19559 5.20242 33979 ft 398 kts 316°
2026-04-25 05:59 47.21558 5.17451 33706 ft 396 kts 316°
2026-04-25 05:59 47.23547 5.14667 33436 ft 393 kts 316°
2026-04-25 05:59 47.25524 5.11902 33169 ft 391 kts 317°
2026-04-25 05:59 47.27487 5.09148 32924 ft 389 kts 316°
2026-04-25 06:00 47.29400 5.06355 32534 ft 385 kts 316°
2026-04-25 06:00 47.31255 5.03525 32019 ft 383 kts 315°
2026-04-25 06:00 47.33071 5.00684 31519 ft 379 kts 315°
2026-04-25 06:00 47.34866 4.97850 30981 ft 377 kts 315°
2026-04-25 06:01 47.36623 4.95085 30541 ft 373 kts 315°
2026-04-25 06:01 47.38397 4.92313 30033 ft 370 kts 315°
2026-04-25 06:01 47.40160 4.89577 29541 ft 366 kts 316°
2026-04-25 06:01 47.41904 4.86878 29082 ft 361 kts 316°
2026-04-25 06:02 47.43629 4.84214 28636 ft 357 kts 316°
2026-04-25 06:02 47.45333 4.81583 28206 ft 352 kts 316°
2026-04-25 06:02 47.47018 4.78974 27777 ft 349 kts 316°
2026-04-25 06:02 47.48681 4.76395 27359 ft 345 kts 316°
2026-04-25 06:03 47.50303 4.73873 26987 ft 341 kts 316°
2026-04-25 06:03 47.51952 4.71308 26805 ft 347 kts 316°
2026-04-25 06:03 47.53621 4.68712 26585 ft 349 kts 316°
2026-04-25 06:03 47.55291 4.66110 26352 ft 348 kts 316°
2026-04-25 06:04 47.56956 4.63511 26126 ft 347 kts 316°
2026-04-25 06:04 47.58615 4.60920 25903 ft 346 kts 316°
2026-04-25 06:04 47.60273 4.58333 25665 ft 346 kts 316°
2026-04-25 06:04 47.61930 4.55746 25450 ft 346 kts 316°
2026-04-25 06:05 47.63583 4.53160 25227 ft 345 kts 316°
2026-04-25 06:05 47.65209 4.50613 25006 ft 344 kts 316°
2026-04-25 06:05 47.66851 4.48041 24782 ft 343 kts 316°
2026-04-25 06:05 47.68489 4.45472 24558 ft 342 kts 316°
2026-04-25 06:06 47.70119 4.42914 24340 ft 341 kts 316°
2026-04-25 06:06 47.71743 4.40361 24118 ft 340 kts 316°
2026-04-25 06:06 47.73363 4.37813 23903 ft 339 kts 316°
2026-04-25 06:06 47.74981 4.35261 23671 ft 339 kts 316°
2026-04-25 06:07 47.76594 4.32711 23433 ft 338 kts 316°
2026-04-25 06:07 47.78203 4.30164 23211 ft 338 kts 316°
2026-04-25 06:07 47.79786 4.27659 22990 ft 337 kts 316°
2026-04-25 06:07 47.81390 4.25123 22774 ft 336 kts 316°
2026-04-25 06:08 47.82989 4.22589 22552 ft 335 kts 316°
2026-04-25 06:08 47.84585 4.20056 22318 ft 335 kts 315°
2026-04-25 06:08 47.86183 4.17520 22118 ft 336 kts 315°
2026-04-25 06:08 47.87627 4.14783 21897 ft 338 kts 304°
2026-04-25 06:09 47.88634 4.11617 21679 ft 341 kts 291°
2026-04-25 06:09 47.89211 4.08181 21453 ft 342 kts 285°
2026-04-25 06:09 47.89714 4.04720 21230 ft 342 kts 285°
2026-04-25 06:09 47.90209 4.01310 21013 ft 341 kts 285°
2026-04-25 06:10 47.90712 3.97864 20789 ft 340 kts 285°
2026-04-25 06:10 47.91212 3.94427 20579 ft 339 kts 285°
2026-04-25 06:10 47.91709 3.90998 20351 ft 338 kts 285°
2026-04-25 06:10 47.92207 3.87575 20129 ft 337 kts 285°
2026-04-25 06:11 47.92702 3.84161 19913 ft 336 kts 285°
2026-04-25 06:11 47.93194 3.80756 19690 ft 336 kts 285°
2026-04-25 06:11 47.93682 3.77358 19472 ft 335 kts 285°
2026-04-25 06:11 47.94161 3.74007 19257 ft 334 kts 284°
2026-04-25 06:12 47.94642 3.70624 19029 ft 333 kts 284°
2026-04-25 06:12 47.95122 3.67246 18812 ft 332 kts 284°
2026-04-25 06:12 47.95600 3.63873 18594 ft 332 kts 284°
2026-04-25 06:12 47.96082 3.60513 18367 ft 331 kts 286°
2026-04-25 06:13 47.96873 3.57320 18142 ft 327 kts 300°
2026-04-25 06:13 47.98113 3.54503 17754 ft 324 kts 312°
2026-04-25 06:13 47.99669 3.52090 17354 ft 321 kts 316°
2026-04-25 06:14 48.02791 3.47365 16569 ft 318 kts 315°
2026-04-25 06:14 48.04333 3.45007 16178 ft 317 kts 315°
2026-04-25 06:14 48.05846 3.42688 15797 ft 315 kts 315°
2026-04-25 06:14 48.07375 3.40343 15398 ft 314 kts 315°